User: anonymous   Login
Location: Borkenes
(68.7830°N, 16.1830°E)
Time: 23:41:41
(UTC+01:00)
Language:

deb Explorer IX - Orbit

View from above orbital plane
View from above orbital plane
View from above satellite
View from above satellite

Ground track
Ground track

The orbit data is extracted from the following two-line orbital elements,

1    85U 61004C   19343.89724549 +.00001771 +00000-0 +40279-3 0  9993
2    85 038.7705 272.5966 0388058 309.7112 047.0024 14.20034320903993
Epoch (UTC): 09 December 2019 21:32:02
Eccentricity: 0.0388058
inclination: 38.7705°
perigee height: 546 km
apogee height: 1105 km
right ascension of ascending node: 272.5966°
argument of perigee: 309.7112°
revolutions per day: 14.20034320
mean anomaly at epoch: 47.0024°
orbit number at epoch: 90399

The dashed part of the orbit path shows where the satellite is in the earth's shadow,  

DLR